Regional Weather Roundup
Issued by NWS Sioux Falls, SD

Home | Current Version | Previous Version | Graphics & Text | Print | Product List | Glossary Off
Versions: 1 2 3 4 5 6 7 8 9 10 11 12 13 14 15 16 17 18 19 20 21 22 23 24 25 26 27 28 29 30 31 32 33 34 35 36 37 38 39 40 41 42 43 44 45 46 47 48 49 50

000
ASUS43 KFSD 210002
RWRFSD

WEATHER ROUNDUP FOR SE SOUTH DAKOTA/SW MINNESOTA/NW IOWA
NATIONAL WEATHER SERVICE SIOUX FALLS SD
700 PM CDT FRI OCT 20 2017

NOTE: "FAIR" INDICATES FEW OR NO CLOUDS BELOW 12,000 FEET WITH NO
SIGNIFICANT WEATHER AND OR OBSTRUCTIONS TO VISIBILITY.


SDZ038>040-050-052>070-210100-
SOUTHEAST SOUTH DAKOTA

CITY           SKY/WX    TMP DP  RH WIND       PRES   REMARKS
BROOKINGS      CLEAR     69  56  62 S18       29.56S
CHAMBERLAIN    CLEAR     72  55  55 S13G18    29.44S
6HR MIN TEMP:  72; 6HR MAX TEMP:  79;

HURON          CLOUDY    72  55  55 S15G24    29.46S
6HR MIN TEMP:  72; 6HR MAX TEMP:  77;

MADISON        MOCLDY    68  57  68 S25G32    29.56S
MITCHELL       CLOUDY    74  56  53 S18G28    29.50S
6HR MIN TEMP:  74; 6HR MAX TEMP:  78;

SIOUX FALLS    MOCLDY    72  59  63 S22G29    29.59R
6HR MIN TEMP:  72; 6HR MAX TEMP:  77;

WINNER         FAIR      71  53  52 S13G23    29.43F
YANKTON        CLOUDY    74  58  57 S20G31    29.55S
$$

MNZ071-072-080-081-089-090-097-098-210100-
SOUTHWEST MINNESOTA

CITY           SKY/WX    TMP DP  RH WIND       PRES   REMARKS
FAIRMONT       CLEAR     68  51  54 S21       29.72R
JACKSON        CLEAR     68  52  56 S18G26    29.70S
MARSHALL       PTCLDY    72  55  55 S25G33    29.58R
6HR MIN TEMP:  72; 6HR MAX TEMP:  78;

MONTEVIDEO     CLEAR     72  52  49 S10G20    29.57S
PIPESTONE      CLEAR     68  55  64 S20G29    29.61R
REDWOOD FALLS  CLEAR     71  51  49 S23G33    29.62S
TRACY          PTCLDY    71  57  60 S20G29    29.62R
WORTHINGTON    CLEAR     69  55  60 S14G25    29.66S
$$

IAZ001>003-012>014-020>022-031-032-NEZ013-014-SDZ071-210100-
NORTHWEST IOWA

CITY           SKY/WX    TMP DP  RH WIND       PRES   REMARKS
CHEROKEE       CLOUDY    70  56  61 S21G28    29.69S
DENISON        CLOUDY    70  57  64 S22G28    29.74F
ESTHERVILLE    CLEAR     67  53  61 S18G29    29.72R
LE MARS        CLEAR     72  57  60 S23G38    29.62S
ORANGE CITY    PTCLDY    72  59  64 S18G32    29.63F
SHELDON        CLEAR     70  55  60 S17G30    29.63F
SIOUX CITY     CLEAR     72  58  61 S22G33    29.64S
6HR MIN TEMP:  72; 6HR MAX TEMP:  78;

SPENCER        CLEAR     69  55  60 S17       29.70S
6HR MIN TEMP:  69; 6HR MAX TEMP:  77;

STORM LAKE     PTCLDY    70  55  60 S15G32    29.72S
$$

ABBREVIATIONS USED IN REMARKS
   TC - TEMPERATURE IN CELSIUS
  WCI - WIND CHILL INDEX
   HX - HEAT INDEX
  VSB - VISIBILITY




USA.gov is the U.S. government's official web portal to all federal, state and local government web resources and services.